TimeCDT,TemperatureF,Dew PointF,Humidity,Sea Level PressureIn,VisibilityMPH,Wind Direction,Wind SpeedMPH,Gust SpeedMPH,PrecipitationIn,Events,Conditions,WindDirDegrees,DateUTC
12:01 AM,39.2,35.6,87,29.55,10.0,West,4.6,-,N/A,,Scattered Clouds,280,2012-10-09 05:01:00
12:21 AM,39.2,35.6,87,29.56,10.0,WSW,3.5,-,N/A,,Mostly Cloudy,250,2012-10-09 05:21:00
12:41 AM,39.2,35.6,87,29.56,10.0,WSW,8.1,-,N/A,,Scattered Clouds,250,2012-10-09 05:41:00
1:01 AM,39.2,35.6,87,29.56,10.0,SW,6.9,-,N/A,,Scattered Clouds,230,2012-10-09 06:01:00
1:21 AM,39.2,35.6,87,29.56,10.0,WSW,6.9,-,N/A,,Scattered Clouds,240,2012-10-09 06:21:00
1:41 AM,39.2,33.8,81,29.57,10.0,WSW,6.9,-,N/A,,Scattered Clouds,240,2012-10-09 06:41:00
2:01 AM,39.2,33.8,81,29.57,10.0,WSW,10.4,16.1,N/A,,Scattered Clouds,250,2012-10-09 07:01:00
2:21 AM,39.2,33.8,81,29.57,10.0,WSW,8.1,-,N/A,,Scattered Clouds,250,2012-10-09 07:21:00
2:41 AM,39.2,33.8,81,29.57,10.0,WSW,9.2,-,N/A,,Mostly Cloudy,250,2012-10-09 07:41:00
3:21 AM,39.2,33.8,81,29.57,10.0,WSW,8.1,-,N/A,,Overcast,250,2012-10-09 08:21:00
3:41 AM,39.2,33.8,81,29.56,10.0,WSW,10.4,-,N/A,,Overcast,250,2012-10-09 08:41:00
4:01 AM,37.4,33.8,87,29.57,10.0,WSW,9.2,-,N/A,,Scattered Clouds,250,2012-10-09 09:01:00
4:21 AM,37.4,33.8,87,29.58,10.0,WSW,8.1,-,N/A,,Clear,240,2012-10-09 09:21:00
4:41 AM,37.4,33.8,87,29.58,10.0,WSW,6.9,-,N/A,,Clear,240,2012-10-09 09:41:00
5:01 AM,37.4,33.8,87,29.58,10.0,WSW,8.1,-,N/A,,Scattered Clouds,250,2012-10-09 10:01:00
5:21 AM,37.4,33.8,87,29.58,10.0,West,6.9,-,N/A,,Mostly Cloudy,260,2012-10-09 10:21:00
5:41 AM,37.4,32.0,81,29.59,10.0,West,6.9,-,N/A,,Overcast,260,2012-10-09 10:41:00
6:01 AM,35.6,32.0,87,29.60,5.0,NW,9.2,-,N/A,,Overcast,310,2012-10-09 11:01:00
6:21 AM,33.8,28.4,81,29.60,2.0,NW,4.6,-,N/A,,Overcast,320,2012-10-09 11:21:00
6:41 AM,33.8,28.4,81,29.61,2.0,NW,4.6,-,N/A,,Overcast,310,2012-10-09 11:41:00
7:21 AM,33.8,28.4,81,29.64,3.0,NNW,9.2,-,N/A,,Overcast,340,2012-10-09 12:21:00
8:01 AM,33.8,30.2,87,29.66,10.0,NNW,12.7,-,N/A,,Overcast,330,2012-10-09 13:01:00
8:41 AM,33.8,30.2,87,29.68,10.0,NW,11.5,-,N/A,,Mostly Cloudy,320,2012-10-09 13:41:00
9:01 AM,33.8,30.2,87,29.69,10.0,NNW,15.0,-,N/A,,Scattered Clouds,330,2012-10-09 14:01:00
9:21 AM,35.6,30.2,81,29.70,7.0,NW,11.5,-,N/A,,Scattered Clouds,320,2012-10-09 14:21:00
9:41 AM,35.6,30.2,81,29.71,5.0,NW,13.8,-,N/A,,Scattered Clouds,320,2012-10-09 14:41:00
10:01 AM,35.6,30.2,81,29.72,10.0,NW,16.1,-,N/A,,Clear,320,2012-10-09 15:01:00
10:21 AM,35.6,30.2,81,29.73,10.0,NW,13.8,21.9,N/A,,Clear,320,2012-10-09 15:21:00
10:41 AM,35.6,30.2,81,29.74,10.0,NW,15.0,-,N/A,,Clear,310,2012-10-09 15:41:00
11:09 AM,35.6,30.2,81,29.75,10.0,NNW,17.3,-,N/A,Snow,Light Snow,330,2012-10-09 16:09:00
11:14 AM,35.6,30.2,81,29.75,10.0,NNW,17.3,-,N/A,Snow,Light Snow,330,2012-10-09 16:14:00
11:35 AM,35.6,30.2,81,29.76,10.0,NNW,17.3,23.0,N/A,,Clear,330,2012-10-09 16:35:00
11:54 AM,35.6,30.2,81,29.77,10.0,NW,15.0,-,N/A,,Clear,320,2012-10-09 16:54:00
12:14 PM,35.6,30.2,81,29.77,10.0,NNW,21.9,-,N/A,,Clear,340,2012-10-09 17:14:00
12:35 PM,37.4,32.0,81,29.78,7.0,NW,18.4,25.3,N/A,,Scattered Clouds,320,2012-10-09 17:35:00
12:54 PM,37.4,32.0,81,29.79,7.0,NNW,18.4,23.0,N/A,,Clear,330,2012-10-09 17:54:00
1:14 PM,39.2,32.0,75,29.79,10.0,NW,18.4,24.2,N/A,,Clear,320,2012-10-09 18:14:00
1:35 PM,39.2,33.8,81,29.79,10.0,NW,17.3,26.5,N/A,,Clear,320,2012-10-09 18:35:00
1:54 PM,39.2,33.8,81,29.80,10.0,NW,18.4,-,N/A,,Clear,310,2012-10-09 18:54:00
2:14 PM,37.4,32.0,81,29.80,10.0,NNW,20.7,24.2,N/A,,Scattered Clouds,330,2012-10-09 19:14:00
2:35 PM,39.2,32.0,75,29.81,10.0,NW,19.6,-,N/A,,Scattered Clouds,320,2012-10-09 19:35:00
2:54 PM,37.4,32.0,81,29.82,10.0,NW,16.1,-,0.01,,Scattered Clouds,320,2012-10-09 19:54:00
3:14 PM,35.6,30.2,81,29.83,3.0,NW,11.5,18.4,N/A,Snow,Light Snow,320,2012-10-09 20:14:00
3:35 PM,37.4,30.2,75,29.84,4.0,NNW,15.0,23.0,N/A,Snow,Light Snow,330,2012-10-09 20:35:00
3:54 PM,39.2,32.0,75,29.84,10.0,NNW,18.4,-,N/A,,Scattered Clouds,340,2012-10-09 20:54:00
4:14 PM,39.2,32.0,75,29.85,10.0,NNW,19.6,-,N/A,,Scattered Clouds,330,2012-10-09 21:14:00
4:34 PM,37.4,30.2,75,29.86,10.0,NNW,13.8,-,N/A,,Scattered Clouds,330,2012-10-09 21:34:00
4:54 PM,39.2,30.2,70,29.86,10.0,NW,11.5,-,N/A,,Mostly Cloudy,320,2012-10-09 21:54:00
5:15 PM,39.2,32.0,75,29.87,10.0,NNW,10.4,-,N/A,,Mostly Cloudy,330,2012-10-09 22:15:00
5:34 PM,39.2,30.2,70,29.87,10.0,NNW,10.4,-,N/A,,Scattered Clouds,330,2012-10-09 22:34:00
5:54 PM,37.4,30.2,75,29.88,10.0,WNW,6.9,-,N/A,,Scattered Clouds,290,2012-10-09 22:54:00
6:15 PM,37.4,30.2,75,29.89,10.0,WNW,6.9,-,N/A,,Scattered Clouds,290,2012-10-09 23:15:00
6:34 PM,35.6,28.4,75,29.89,10.0,WNW,8.1,-,N/A,,Clear,290,2012-10-09 23:34:00
6:54 PM,35.6,28.4,75,29.91,10.0,WNW,8.1,-,N/A,,Mostly Cloudy,300,2012-10-09 23:54:00
7:15 PM,35.6,28.4,75,29.91,10.0,WNW,6.9,-,N/A,,Scattered Clouds,300,2012-10-10 00:15:00
7:34 PM,35.6,30.2,81,29.92,5.0,NNW,10.4,-,N/A,Snow,Light Snow,340,2012-10-10 00:34:00
7:54 PM,35.6,30.2,81,29.92,10.0,WNW,4.6,-,N/A,,Mostly Cloudy,290,2012-10-10 00:54:00
8:15 PM,35.6,30.2,81,29.92,10.0,WNW,6.9,-,N/A,,Mostly Cloudy,290,2012-10-10 01:15:00
8:34 PM,33.8,28.4,81,29.92,10.0,WNW,5.8,-,N/A,,Mostly Cloudy,290,2012-10-10 01:34:00
8:54 PM,33.8,28.4,81,29.92,10.0,WNW,5.8,-,N/A,,Scattered Clouds,290,2012-10-10 01:54:00
9:15 PM,33.8,28.4,81,29.93,10.0,WNW,5.8,-,N/A,,Mostly Cloudy,290,2012-10-10 02:15:00
9:34 PM,33.8,28.4,81,29.93,10.0,WNW,4.6,-,N/A,,Overcast,290,2012-10-10 02:34:00
9:54 PM,33.8,28.4,81,29.92,10.0,WNW,4.6,-,N/A,,Overcast,290,2012-10-10 02:54:00
10:15 PM,33.8,28.4,81,29.93,10.0,West,4.6,-,N/A,,Mostly Cloudy,270,2012-10-10 03:15:00
10:34 PM,33.8,28.4,81,29.93,10.0,West,4.6,-,N/A,,Mostly Cloudy,280,2012-10-10 03:34:00
10:54 PM,35.6,28.4,75,29.93,10.0,WNW,5.8,-,N/A,,Scattered Clouds,290,2012-10-10 03:54:00
11:15 PM,35.6,28.4,75,29.93,10.0,West,6.9,-,N/A,,Mostly Cloudy,280,2012-10-10 04:15:00
11:34 PM,35.6,28.4,75,29.93,10.0,West,5.8,-,N/A,,Overcast,280,2012-10-10 04:34:00
11:54 PM,35.6,28.4,75,29.93,10.0,West,6.9,-,N/A,,Overcast,280,2012-10-10 04:54:00